Spokane Fairchild, WA

12:47 PM PDT on August 20, 2017 (GMT -0700)
Fairchild Air Force Base

Weather History for KSKA - November, 2013

Change the Weather History Date:

Tuesday, November 26, 2013

  Actual Average Record
Temperature  
Mean Temperature 31 °F -  
Max Temperature 38 °F 36 °F 53 °F (1998)
Min Temperature 24 °F 26 °F 15 °F (2003)
Degree Days  
Heating Degree Days 34    
Moisture  
Dew Point 25 °F    
Average Humidity 83    
Maximum Humidity 95    
Minimum Humidity 65    
Precipitation  
Precipitation 0.05 in - - ()
Sea Level Pressure  
Sea Level Pressure 30.27 in    
Wind  
Wind Speed 6 mph (NNE)    
Max Wind Speed 10 mph    
Max Gust Speed -    
Visibility 10 miles    
Events      
Averages and records for this station are not official NWS values.
T = Trace of Precipitation, MM = Missing Value Source: NWS Daily Summary

Daily Weather History Graph

Daily Weather History Graph

Search for Another Location

Airport or City:

Trip Planner

Search our weather history database for the weather conditions in past years. The results will help you decide how hot, cold, wet, or windy it might be!

Date:

Astronomy

Nov. 26, 2013 Rise Set
Actual Time 7:11 AM PST 4:03 PM PST
Civil Twilight 6:37 AM PST 4:38 PM PST
Nautical Twilight 5:58 AM PST 5:16 PM PST
Astronomical Twilight 5:21 AM PST 5:53 PM PST
Moon No Moon Rise 12:38 PM PST (11/26)
Length of Visible Light 10h 01m
Length of Day
8h 51m
Last Quarter, 40% of the Moon is Illuminated
Nov 26
Last Quarter
Dec 2
New
Dec 9
First Quarter
Dec 17
Full
Dec 25
Last Quarter

Hourly Weather History & Observations

Time (PST) Temp. Windchill Dew Point Humidity Pressure Visibility Wind Dir Wind Speed Gust Speed Precip Events Conditions
12:58 AM 28.8 °F 22.6 °F 23.9 °F 82% 30.41 in 10.0 mi NNE 5.8 mph - N/A   Partly Cloudy
1:48 AM 28.4 °F 19.7 °F 23.0 °F 80% 30.32 in 10.0 mi NE 9.2 mph - N/A   Clear
1:58 AM 27.0 °F 18.7 °F 23.2 °F 86% 30.40 in 10.0 mi NE 8.1 mph - 0.00 in   Clear
1:59 AM 26.6 °F 19.1 °F 23.0 °F 86% 30.32 in 10.0 mi NE 6.9 mph - N/A   Clear
2:58 AM 26.6 °F 18.2 °F 22.8 °F 86% 30.39 in 10.0 mi NNE 8.1 mph - 0.00 in   Clear
3:16 AM 28.4 °F 19.1 °F 24.8 °F 86% 30.31 in 10.0 mi NNE 10.4 mph - N/A   Clear
3:27 AM 28.4 °F 19.1 °F 24.8 °F 86% 30.30 in 10.0 mi NNE 10.4 mph - N/A   Clear
3:58 AM 25.3 °F 17.6 °F 22.8 °F 90% 30.39 in 10.0 mi NNE 6.9 mph - 0.00 in   Clear
4:58 AM 26.2 °F 20.7 °F 23.0 °F 88% 30.38 in 10.0 mi NNE 4.6 mph - N/A   Clear
5:58 AM 26.6 °F 19.1 °F 23.0 °F 86% 30.37 in 10.0 mi North 6.9 mph - N/A   Clear
6:58 AM 26.1 °F 19.4 °F 23.0 °F 88% 30.36 in 10.0 mi North 5.8 mph - N/A   Clear
7:58 AM 26.1 °F 18.4 °F 23.2 °F 89% 30.36 in 10.0 mi North 6.9 mph - N/A   Clear
8:25 AM 28.4 °F 19.7 °F 24.8 °F 86% 30.26 in 10.0 mi NNE 9.2 mph - N/A   Clear
8:44 AM 30.2 °F 21.3 °F 24.8 °F 80% 30.26 in 10.0 mi NNE 10.4 mph - N/A   Clear
8:58 AM 29.5 °F 20.4 °F 25.7 °F 86% 30.36 in 10.0 mi NNE 10.4 mph - 0.00 in   Clear
9:33 AM 32.0 °F 24.8 °F 26.6 °F 80% 30.27 in 10.0 mi NE 8.1 mph - N/A   Clear
9:42 AM 32.0 °F 24.2 °F 26.6 °F 80% 30.27 in 10.0 mi NNE 9.2 mph - N/A   Clear
9:58 AM 31.1 °F 23.7 °F 26.6 °F 83% 30.36 in 10.0 mi NNE 8.1 mph - 0.00 in   Clear
10:58 AM 33.4 °F 28.1 °F 26.6 °F 76% 30.34 in 10.0 mi NE 5.8 mph - N/A   Clear
11:58 AM 35.8 °F - 26.4 °F 69% 30.31 in 10.0 mi Variable 1.2 mph - N/A   Clear
12:58 PM 37.6 °F 32.3 °F 26.8 °F 65% 30.27 in 10.0 mi NE 6.9 mph - N/A   Clear
1:58 PM 37.9 °F 35.5 °F 27.3 °F 66% 30.27 in 10.0 mi NE 3.5 mph - N/A   Clear
2:25 PM 37.4 °F - 28.4 °F 70% 30.18 in 10.0 mi East 2.3 mph - N/A   Partly Cloudy
2:42 PM 37.4 °F - 26.6 °F 65% 30.18 in 10.0 mi NE 1.2 mph - N/A   Clear
2:58 PM 38.1 °F - 27.7 °F 66% 30.26 in 10.0 mi ENE 2.3 mph - 0.00 in   Clear
3:58 PM 34.9 °F 29.9 °F 26.8 °F 72% 30.25 in 10.0 mi NNE 5.8 mph - N/A   Mostly Cloudy
4:27 PM 33.8 °F 30.8 °F 26.6 °F 75% 30.18 in 10.0 mi North 3.5 mph - N/A   Scattered Clouds
4:37 PM 33.8 °F 30.8 °F 26.6 °F 75% 30.18 in 10.0 mi NNW 3.5 mph - N/A   Scattered Clouds
4:41 PM 32.0 °F 28.7 °F 26.6 °F 80% 30.18 in 10.0 mi NNW 3.5 mph - N/A   Scattered Clouds
4:58 PM 33.3 °F 30.2 °F 26.1 °F 75% 30.27 in 10.0 mi North 3.5 mph - 0.00 in   Partly Cloudy
5:02 PM 32.0 °F 28.7 °F 26.6 °F 80% 30.18 in 10.0 mi NNW 3.5 mph - N/A   Partly Cloudy
5:58 PM 30.4 °F - 25.9 °F 83% 30.25 in 10.0 mi SE 2.3 mph - 0.00 in   Clear
6:30 PM 32.0 °F 27.5 °F 26.6 °F 80% 30.17 in 10.0 mi South 4.6 mph - N/A   Mostly Cloudy
6:48 PM 32.0 °F - 26.6 °F 80% 30.17 in 10.0 mi SW 2.3 mph - N/A   Overcast
6:58 PM 30.9 °F 25.2 °F 26.8 °F 85% 30.27 in 10.0 mi SW 5.8 mph - 0.00 in   Mostly Cloudy
7:01 PM 30.2 °F 24.3 °F 26.6 °F 86% 30.18 in 10.0 mi SSW 5.8 mph - N/A   Mostly Cloudy
7:18 PM 28.4 °F 22.2 °F 26.6 °F 93% 30.18 in 10.0 mi SSW 5.8 mph - N/A   Partly Cloudy
7:48 PM 28.4 °F 23.3 °F 24.8 °F 86% 30.17 in 10.0 mi SSW 4.6 mph - N/A   Partly Cloudy
7:58 PM 28.8 °F 25.0 °F 25.9 °F 89% 30.26 in 10.0 mi SSW 3.5 mph - 0.00 in   Clear
7:59 PM 28.4 °F 24.6 °F 26.6 °F 93% 30.17 in 10.0 mi SSW 3.5 mph - N/A   Clear
8:58 PM 27.1 °F - 24.8 °F 91% 30.25 in 10.0 mi WSW 2.3 mph - 0.00 in   Partly Cloudy
9:58 PM 25.9 °F - 23.7 °F 92% 30.26 in 10.0 mi WSW 2.3 mph - N/A   Clear
10:29 PM 24.8 °F - 23.0 °F 93% 30.17 in 10.0 mi Calm Calm - N/A   Clear
10:39 PM 24.8 °F - 23.0 °F 93% 30.17 in 10.0 mi South 2.3 mph - N/A   Clear
10:58 PM 25.3 °F - 23.9 °F 94% 30.26 in 10.0 mi SE 2.3 mph - 0.00 in   Clear
11:58 PM 26.1 °F - 24.8 °F 95% 30.25 in 8.0 mi Calm Calm - N/A   Clear